Kinloss, United Kingdom

12:37 AM BST on March 27, 2017 (GMT +0100)
Kinloss Air Base

Weather History for EGQK - October, 2013

Change the Weather History Date:

Tuesday, October 8, 2013

  Actual Average Record
Temperature  
Mean Temperature 56 °F -  
Max Temperature 62 °F 53 °F 62 °F (2006)
Min Temperature 51 °F 41 °F 35 °F (1998)
Degree Days  
Heating Degree Days 8    
Growing Degree Days 6 (Base 50)    
Moisture  
Dew Point 50 °F    
Average Humidity 76    
Maximum Humidity 88    
Minimum Humidity 63    
Precipitation  
Precipitation 0.00 in 0.08 in - ()
Sea Level Pressure  
Sea Level Pressure 29.97 in    
Wind  
Wind Speed 12 mph ()    
Max Wind Speed 23 mph    
Max Gust Speed -    
Visibility 6.2 miles    
Events Rain    
Averages and records for this station are not official NWS values.
T = Trace of Precipitation, MM = Missing Value Source: Averaged Metar Reports

Daily Weather History Graph

Daily Weather History Graph

Search for Another Location

Airport or City:

Trip Planner

Search our weather history database for the weather conditions in past years. The results will help you decide how hot, cold, wet, or windy it might be!

Date:

Astronomy

Oct. 08, 2013 Rise Set
Actual Time 7:33 AM BST 6:28 PM BST
Civil Twilight 6:54 AM BST 7:07 PM BST
Nautical Twilight 6:09 AM BST 7:52 PM BST
Astronomical Twilight 5:23 AM BST 8:38 PM BST
Moon 12:00 PM BST (10/8) 8:03 PM BST (10/8)
Length of Visible Light 12h 13m
Length of Day
10h 55m
Waxing Crescent, 14% of the Moon is Illuminated
Oct 8
Waxing Crescent
Oct 12
First Quarter
Oct 19
Full
Oct 27
Last Quarter
Nov 3
New

Hourly Weather History & Observations

Time (BST) Temp. Dew Point Humidity Pressure Visibility Wind Dir Wind Speed Gust Speed Precip Events Conditions
12:50 AM 61 °F 54 °F 70% 29.88 in 31 mi WSW 15.0 mph - - Rain Rain
12:50 AM 60.8 °F 53.6 °F 77% 29.86 in 6.2 mi WSW 15.0 mph - N/A   Partly Cloudy
1:50 AM 59.0 °F 53.6 °F 82% 29.89 in 6.2 mi WSW 5.8 mph - N/A   Mostly Cloudy
2:50 AM 57.2 °F 51.8 °F 82% 29.89 in 6.2 mi SW 3.5 mph - N/A   Mostly Cloudy
3:50 AM 59 °F 53 °F 73% 29.89 in 28 mi SW 9.2 mph - -   Scattered Clouds
3:50 AM 59.0 °F 51.8 °F 77% 29.89 in 6.2 mi SW 9.2 mph - N/A   Mostly Cloudy
4:50 AM 57.2 °F 51.8 °F 82% 29.86 in 6.2 mi SW 12.7 mph - N/A   Mostly Cloudy
5:50 AM 55.4 °F 50.0 °F 82% 29.89 in 6.2 mi SSW 6.9 mph - N/A   Partly Cloudy
6:50 AM 56 °F 51 °F 79% 29.92 in 31 mi SW 15.0 mph - -  
6:50 AM 55.4 °F 51.8 °F 88% 29.92 in 6.2 mi SW 15.0 mph - N/A   Mostly Cloudy
7:50 AM 55.4 °F 51.8 °F 88% 29.92 in 6.2 mi SW 11.5 mph - N/A   Unknown
8:50 AM 57.2 °F 51.8 °F 82% 29.92 in - SW 12.7 mph - N/A   Clear
9:50 AM 58 °F 52 °F 73% 29.96 in 37 mi WSW 15.0 mph - -   Mostly Cloudy
9:50 AM 59.0 °F 51.8 °F 77% 29.95 in - WSW 15.0 mph - N/A   Clear
10:50 AM 60.8 °F 53.6 °F 77% 29.98 in 6.2 mi WSW 18.4 mph - N/A   Scattered Clouds
11:50 AM 60.8 °F 51.8 °F 72% 29.98 in 6.2 mi West 20.7 mph - N/A   Scattered Clouds
12:50 PM 61 °F 52 °F 63% 30.00 in 34 mi West 23.0 mph - -  
12:50 PM 60.8 °F 51.8 °F 72% 29.98 in - West 23.0 mph - N/A   Clear
1:50 PM 60.8 °F 51.8 °F 72% 30.01 in - WSW 19.6 mph - N/A   Clear
2:50 PM 60.8 °F 50.0 °F 68% 30.01 in 6.2 mi West 23.0 mph - N/A   Mostly Cloudy
3:50 PM 59 °F 51 °F 67% 30.02 in 37 mi West 15.0 mph - -   Mostly Cloudy
3:50 PM 59.0 °F 51.8 °F 77% 30.01 in 6.2 mi West 15.0 mph - N/A   Mostly Cloudy
4:50 PM 59.0 °F 50.0 °F 72% 30.01 in 6.2 mi West 15.0 mph - N/A   Mostly Cloudy
5:50 PM 57.2 °F 48.2 °F 72% 30.04 in 6.2 mi West 15.0 mph - N/A   Mostly Cloudy
6:50 PM 55 °F 47 °F 65% 30.06 in 37 mi SW 12.7 mph - -   Scattered Clouds
6:50 PM 55.4 °F 46.4 °F 72% 30.04 in 6.2 mi SW 12.7 mph - N/A   Mostly Cloudy
7:50 PM 53.6 °F 46.4 °F 77% 30.04 in 6.2 mi SW 16.1 mph - N/A   Overcast
8:50 PM 53.6 °F 46.4 °F 77% 30.04 in 6.2 mi WSW 17.3 mph - N/A   Scattered Clouds
9:50 PM 53 °F 46 °F 70% 30.05 in 37 mi WSW 17.3 mph - -   Mostly Cloudy
9:50 PM 53.6 °F 46.4 °F 77% 30.04 in 6.2 mi WSW 17.3 mph - N/A   Mostly Cloudy
10:50 PM 51.8 °F 46.4 °F 82% 30.04 in 6.2 mi WSW 16.1 mph - N/A   Mostly Cloudy
11:50 PM 51.8 °F 46.4 °F 82% 30.04 in 6.2 mi SW 11.5 mph - N/A   Mostly Cloudy